DW6016 Weather Reports


time (UTC)temp
F
wind
direction
speed
knots
gust
knots
rain 1hr
in
rain 24hr
in
rain mn
in
humidity
%
barometer
mb
20210927073007 61 73 0.9 0.9 0.00 0.00 0.00 98 1010.7
20210927072503 61 84 0.9 0.9 0.00 0.00 0.00 98 1010.7
20210927072002 61 77 0.0 0.0 0.00 0.00 0.00 99 1010.8
20210927071501 61 82 0.0 0.0 0.00 0.00 0.00 99 1010.8
20210927071002 61 87 0.9 1.7 0.00 0.00 0.00 99 1010.9
20210927070456 62 97 0.9 0.9 0.00 0.00 0.00 99 1010.9
20210927065955 62 80 0.9 0.9 0.00 0.12 0.12 99 1011.0
20210927065456 62 80 0.9 0.9 0.00 0.12 0.12 99 1011.0
20210927064954 62 107 1.7 4.3 0.00 0.12 0.12 99 1011.2
20210927064452 61 81 0.0 0.9 0.00 0.12 0.12 99 1011.1
20210927063952 61 122 0.9 0.9 0.00 0.12 0.12 99 1011.1
20210927063450 61 79 0.0 0.9 0.00 0.12 0.12 99 1011.2
20210927062948 61 75 0.0 0.9 0.00 0.12 0.12 99 1011.0
20210927062442 61 76 0.0 0.0 0.07 0.12 0.12 99 1011.1
20210927061942 61 68 0.9 0.9 0.07 0.12 0.12 99 1011.1
20210927061441 61 75 0.0 0.9 0.00 0.11 0.11 99 1010.9
20210927060938 61 72 0.0 0.0 0.00 0.11 0.11 99 1011.1
20210927060435 61 74 0.0 0.0 0.00 0.11 0.11 99 1010.9
20210927055934 61 75 0.0 0.0 0.00 0.11 0.11 99 1010.9
20210927055431 61 82 0.9 1.7 0.00 0.11 0.11 99 1010.8
20210927054930 61 76 0.0 0.9 0.00 0.11 0.11 99 1011.0
20210927054427 61 83 0.0 0.9 0.04 0.11 0.11 99 1010.9
20210927053923 61 82 0.0 0.0 0.04 0.11 0.11 99 1011.1
20210927053423 61 79 0.0 0.0 0.00 0.10 0.10 99 1010.8
20210927052922 61 85 0.9 0.9 0.11 0.10 0.10 99 1011.0
20210927052420 61 81 0.9 1.7 0.18 0.10 0.10 99 1011.2
20210927051919 61 75 0.0 0.0 0.07 0.08 0.08 99 1011.0
20210927051419 61 71 0.9 0.9 0.00 0.07 0.07 99 1011.2
20210927050917 62 79 2.6 2.6 0.11 0.07 0.07 99 1010.9
20210927050416 62 78 0.0 0.9 0.07 0.06 0.06 99 1010.9
20210927045915 62 78 0.9 0.9 0.07 0.05 0.05 98 1010.9
20210927045413 62 79 0.0 0.9 0.11 0.05 0.05 97 1010.9
20210927044912 62 82 0.9 1.7 0.11 0.03 0.03 96 1011.1
20210927044411 62 76 0.0 0.9 0.07 0.03 0.03 95 1011.1
20210927043911 62 87 0.9 1.7 0.00 0.02 0.02 94 1010.9
20210927043409 62 82 0.9 0.9 0.00 0.02 0.02 93 1010.6
20210927042907 62 79 0.9 1.7 0.00 0.02 0.02 93 1010.8
20210927042407 62 76 0.0 0.9 0.00 0.02 0.02 92 1010.9
20210927041907 63 80 0.9 1.7 0.00 0.02 0.02 92 1010.7
20210927041406 63 84 0.9 0.9 0.00 0.02 0.02 91 1010.7
20210927040904 63 81 0.0 0.0 0.04 0.02 0.02 91 1010.7
20210927040400 64 81 0.0 0.0 0.11 0.02 0.02 88 1010.8
20210927035859 65 81 0.0 0.0 0.07 0.01 0.01 84 1011.0
20210927035359 66 76 0.9 1.7 0.00 0.00 0.00 77 1010.8
20210927034857 66 84 0.9 0.9 0.00 0.00 0.00 76 1010.5
20210927034355 66 84 0.9 0.9 0.00 0.00 0.00 76 1010.5
20210927033854 66 77 0.0 0.0 0.00 0.00 0.00 77 1010.7
20210927033353 67 111 2.6 7.0 0.00 0.00 0.00 74 1010.5
20210927032852 67 81 0.0 0.9 0.00 0.00 0.00 74 1010.7
20210927032344 68 82 0.9 0.9 0.00 0.00 0.00 71 1010.6
20210927031843 68 71 0.9 0.9 0.00 0.00 0.00 65 1010.3
20210927031338 69 79 0.0 0.0 0.00 0.00 0.00 62 1010.1
20210927030837 69 73 0.9 1.7 0.00 0.00 0.00 56 1009.9
20210927030336 69 80 0.0 0.9 0.00 0.00 0.00 57 1009.8
20210927025834 69 80 0.0 0.0 0.00 0.00 0.00 58 1009.5
20210927025334 69 76 0.0 0.9 0.00 0.00 0.00 57 1009.7
20210927024833 69 79 0.0 0.0 0.00 0.00 0.00 57 1009.9
20210927024332 69 80 0.9 0.9 0.00 0.00 0.00 56 1009.7
20210927023830 69 74 0.9 0.9 0.00 0.00 0.00 57 1010.0
20210927023328 70 75 0.9 1.7 0.00 0.00 0.00 55 1010.2
20210927022816 71 78 0.0 0.9 0.00 0.00 0.00 52 1010.1
20210927022315 71 68 1.7 1.7 0.00 0.00 0.00 50 1009.9
20210927021809 71 76 0.0 0.0 0.00 0.00 0.00 49 1010.2
20210927021306 71 75 0.9 0.9 0.00 0.00 0.00 46 1010.1
20210927020805 71 74 0.0 0.0 0.00 0.00 0.00 46 1010.2
20210927020304 72 72 0.0 0.9 0.00 0.00 0.00 46 1010.0
20210927015803 72 76 0.9 0.9 0.00 0.00 0.00 45 1010.0
20210927015305 72 76 1.7 1.7 0.00 0.00 0.00 44 1010.0
20210927014802 72 78 0.0 0.0 0.00 0.00 0.00 44 1010.2
20210927014301 72 84 1.7 2.6 0.00 0.00 0.00 44 1009.8
20210927013801 72 80 0.0 0.9 0.00 0.00 0.00 44 1009.9
20210927013259 72 72 0.9 0.9 0.00 0.00 0.00 44 1009.8
20210927012757 72 72 0.0 0.0 0.00 0.00 0.00 45 1009.8
20210927012256 72 84 0.0 0.9 0.00 0.00 0.00 45 1010.0
20210927011755 72 83 0.9 0.9 0.00 0.00 0.00 44 1009.6
20210927011254 72 79 0.9 0.9 0.00 0.00 0.00 45 1009.9
20210927010753 72 76 0.9 0.9 0.00 0.00 0.00 44 1010.3
20210927010251 72 77 1.7 1.7 0.00 0.00 0.00 43 1010.1
20210927005751 72 82 0.0 0.0 0.00 0.00 0.00 44 1010.2
20210927005250 72 82 0.0 0.0 0.00 0.00 0.00 44 1009.8
20210927004747 72 74 0.9 1.7 0.00 0.00 0.00 44 1009.9
20210927004246 72 90 1.7 1.7 0.00 0.00 0.00 44 1010.1
20210927003744 72 110 4.3 6.1 0.00 0.00 0.00 44 1009.9
20210927003241 72 82 0.9 1.7 0.00 0.00 0.00 44 1010.0
20210927002739 72 80 0.9 0.9 0.00 0.00 0.00 44 1010.1
20210927002239 72 81 0.9 0.9 0.00 0.00 0.00 43 1010.0
20210927001737 72 76 0.9 0.9 0.00 0.00 0.00 44 1010.1
20210927001236 72 79 0.0 0.9 0.00 0.00 0.00 44 1010.5
20210927000732 72 73 0.9 0.9 0.00 0.00 0.00 45 1010.3
20210927000233 73 137 1.7 2.6 0.00 0.00 0.00 43 1010.5
20210926235730 74 85 0.9 1.7 0.00 0.00 0.00 43 1010.5
20210926235228 73 81 0.9 0.9 0.00 0.00 0.00 43 1010.5
20210926234727 73 67 1.7 2.6 0.00 0.00 0.00 42 1010.8
20210926234226 72 90 1.7 1.7 0.00 0.00 0.00 43 1010.9
20210926233724 73 82 0.9 0.9 0.00 0.00 0.00 43 1010.6
20210926233223 72 76 0.0 0.9 0.00 0.00 0.00 45 1010.7
20210926232722 73 82 0.9 0.9 0.00 0.00 0.00 43 1010.8
20210926232220 73 73 0.0 0.9 0.00 0.00 0.00 43 1010.8
20210926231718 73 69 0.0 0.9 0.00 0.00 0.00 43 1010.9
20210926231218 73 83 1.7 1.7 0.00 0.00 0.00 43 1011.1
20210926230716 73 76 0.9 0.9 0.00 0.00 0.00 43 1010.9
20210926230215 75 82 1.7 2.6 0.00 0.00 0.00 42 1011.1
20210926225711 75 21 0.9 1.7 0.00 0.00 0.00 41 1011.0
20210926225211 75 84 0.9 0.9 0.00 0.00 0.00 41 1011.4
20210926224711 75 107 1.7 1.7 0.00 0.00 0.00 43 1011.3
20210926224211 75 74 0.0 0.0 0.00 0.00 0.00 44 1011.2
20210926223710 75 91 1.7 2.6 0.00 0.00 0.00 43 1011.1
20210926223209 72 85 2.6 2.6 0.00 0.00 0.00 47 1011.3
20210926222708 72 112 0.9 1.7 0.00 0.00 0.00 47 1011.4
20210926222206 72 69 0.0 0.9 0.00 0.00 0.00 47 1011.6
20210926221704 72 78 1.7 2.6 0.00 0.00 0.00 49 1011.6
20210926221204 72 74 0.9 0.9 0.00 0.00 0.00 49 1011.7
20210926220703 72 84 0.0 0.9 0.00 0.00 0.00 49 1011.8
20210926220200 73 82 1.7 1.7 0.00 0.00 0.00 48 1011.6
20210926215652 72 97 1.7 1.7 0.00 0.00 0.00 49 1011.7
20210926215153 72 84 0.9 0.9 0.00 0.00 0.00 51 1011.9
20210926214650 72 63 0.9 1.7 0.00 0.00 0.00 50 1011.9
20210926214147 73 88 2.6 2.6 0.00 0.00 0.00 49 1012.0
20210926213645 73 83 1.7 1.7 0.00 0.00 0.00 48 1012.0
20210926213144 73 66 0.9 1.7 0.00 0.00 0.00 50 1012.1
20210926212644 72 81 0.9 0.9 0.00 0.00 0.00 53 1012.5
20210926212142 72 67 0.9 0.9 0.00 0.00 0.00 53 1012.4
20210926211641 71 75 0.9 0.9 0.00 0.00 0.00 54 1012.6
20210926211139 71 72 0.0 0.0 0.00 0.00 0.00 57 1012.6
20210926210636 71 82 0.9 0.9 0.00 0.00 0.00 53 1013.0
20210926210136 72 83 0.0 0.0 0.00 0.00 0.00 53 1012.7
20210926205635 72 82 0.0 0.9 0.00 0.00 0.00 52 1012.9
20210926205135 72 79 0.9 0.9 0.00 0.00 0.00 52 1012.9
20210926204634 73 80 0.0 0.9 0.00 0.00 0.00 52 1013.1
20210926204133 72 61 0.9 1.7 0.00 0.00 0.00 52 1013.0
20210926203631 71 107 1.7 2.6 0.00 0.00 0.00 52 1013.3
20210926203130 70 84 0.9 0.9 0.00 0.00 0.00 54 1013.1
20210926202626 70 85 0.9 0.9 0.00 0.00 0.00 54 1013.3
20210926202124 71 88 0.0 0.9 0.00 0.00 0.00 52 1013.3
20210926201623 70 67 0.9 0.9 0.00 0.00 0.00 54 1013.6
20210926201121 69 70 0.0 0.9 0.00 0.00 0.00 54 1013.5
20210926200621 69 60 2.6 2.6 0.00 0.00 0.00 55 1013.6
20210926200116 68 70 0.9 1.7 0.00 0.00 0.00 57 1013.6
20210926195615 68 77 0.9 1.7 0.00 0.00 0.00 58 1013.8
20210926195115 68 81 0.0 0.9 0.00 0.00 0.00 57 1013.6
20210926194615 67 80 1.7 1.7 0.00 0.00 0.00 57 1013.7
20210926194113 67 95 0.9 0.9 0.00 0.00 0.00 59 1013.9
20210926193610 67 66 0.9 1.7 0.00 0.00 0.00 61 1014.0
20210926193110 66 114 0.9 1.7 0.00 0.00 0.00 60 1014.1
20210926192609 67 69 0.9 0.9 0.00 0.00 0.00 60 1014.2
20210926192108 66 76 0.0 0.0 0.00 0.00 0.00 61 1014.3
20210926191607 65 94 1.7 1.7 0.00 0.00 0.00 63 1014.3
20210926191105 66 80 0.9 0.9 0.00 0.00 0.00 61 1014.6
20210926190604 66 78 0.0 0.9 0.00 0.00 0.00 62 1014.6
20210926190103 65 79 0.9 1.7 0.00 0.00 0.00 63 1014.6
20210926185559 66 83 1.7 2.6 0.00 0.00 0.00 61 1014.7
20210926185056 66 74 0.0 0.9 0.00 0.00 0.00 61 1014.9
20210926184555 66 81 0.9 0.9 0.00 0.00 0.00 62 1014.8
20210926184053 67 107 0.9 0.9 0.00 0.00 0.00 59 1014.9
20210926183552 65 81 0.0 0.0 0.00 0.00 0.00 62 1015.0
20210926183050 65 70 0.9 0.9 0.00 0.00 0.00 63 1015.1
20210926182548 66 63 0.9 0.9 0.00 0.00 0.00 60 1015.1
20210926182048 65 71 0.9 0.9 0.00 0.00 0.00 62 1015.3
20210926181546 65 82 0.9 1.7 0.00 0.00 0.00 63 1015.2
20210926181045 64 83 0.9 1.7 0.00 0.00 0.00 64 1015.2
20210926180545 64 46 2.6 4.3 0.00 0.00 0.00 64 1015.6
20210926180043 62 72 0.0 0.0 0.00 0.00 0.00 67 1015.3
20210926175542 62 77 0.9 0.9 0.00 0.00 0.00 67 1015.4
20210926175040 61 49 1.7 1.7 0.00 0.00 0.00 68 1015.5
20210926174539 61 82 0.9 0.9 0.00 0.00 0.00 69 1015.5
20210926174038 61 82 0.9 0.9 0.00 0.00 0.00 70 1015.5
20210926173537 61 82 2.6 2.6 0.00 0.00 0.00 69 1015.8
20210926173036 61 75 0.0 0.9 0.00 0.00 0.00 71 1015.8
20210926172533 61 79 1.7 1.7 0.00 0.00 0.00 71 1015.8
20210926172033 61 74 0.9 0.9 0.00 0.00 0.00 70 1015.9
20210926171532 61 72 0.0 0.9 0.00 0.00 0.00 71 1016.1
20210926171030 61 81 0.0 0.0 0.00 0.00 0.00 71 1016.0
20210926170530 61 46 0.9 1.7 0.00 0.00 0.00 70 1016.0
20210926170028 61 82 0.9 1.7 0.00 0.00 0.00 72 1015.9
20210926165526 61 72 0.9 0.9 0.00 0.00 0.00 72 1015.8
20210926165024 61 88 0.9 0.9 0.00 0.00 0.00 73 1015.8
20210926164518 61 75 0.0 0.9 0.00 0.00 0.00 72 1016.1
20210926164017 61 78 0.0 0.9 0.00 0.00 0.00 73 1016.5
20210926163512 60 83 0.9 0.9 0.00 0.00 0.00 73 1016.3
20210926163011 61 76 0.0 0.0 0.00 0.00 0.00 72 1016.4
20210926162511 61 52 1.7 1.7 0.00 0.00 0.00 71 1016.5
20210926162002 60 75 0.9 1.7 0.00 0.00 0.00 74 1016.4
20210926161459 60 89 0.9 1.7 0.00 0.00 0.00 76 1016.2
20210926160958 59 84 0.9 0.9 0.00 0.00 0.00 77 1016.3
20210926160458 59 81 0.9 0.9 0.00 0.00 0.00 77 1016.3
20210926155957 59 78 0.9 0.9 0.00 0.00 0.00 78 1016.5
20210926155455 59 74 0.9 0.9 0.00 0.00 0.00 79 1016.1
20210926154953 59 70 0.9 0.9 0.00 0.00 0.00 80 1016.4
20210926154452 59 72 0.0 0.0 0.00 0.00 0.00 81 1016.2
20210926153950 58 80 0.0 0.0 0.00 0.00 0.00 81 1016.2
20210926153450 58 68 0.0 0.0 0.00 0.00 0.00 81 1016.4
20210926152949 58 67 0.0 0.9 0.00 0.00 0.00 80 1016.2
20210926152448 58 76 0.0 0.9 0.00 0.00 0.00 80 1016.3
20210926151948 58 89 1.7 1.7 0.00 0.00 0.00 81 1016.2
20210926151447 58 74 0.0 0.0 0.00 0.00 0.00 81 1016.1
20210926150946 58 79 0.0 0.0 0.00 0.00 0.00 81 1016.3
20210926150445 58 77 0.0 0.0 0.00 0.00 0.00 81 1016.0
20210926145943 58 73 0.0 0.0 0.00 0.00 0.00 81 1016.3
20210926145442 58 75 0.0 0.0 0.00 0.00 0.00 81 1016.1
20210926144940 58 84 0.0 0.0 0.00 0.00 0.00 81 1016.1
20210926144436 58 81 0.9 0.9 0.00 0.00 0.00 81 1016.1
20210926143935 58 77 0.9 0.9 0.00 0.00 0.00 81 1015.9
20210926143435 58 101 1.7 2.6 0.00 0.00 0.00 81 1016.0
20210926142934 58 77 0.0 0.0 0.00 0.00 0.00 81 1016.2
20210926142427 58 75 0.0 0.9 0.00 0.00 0.00 81 1015.8
20210926141926 58 74 0.0 0.0 0.00 0.00 0.00 81 1016.2
20210926141424 58 76 0.0 0.0 0.00 0.00 0.00 80 1015.9
20210926140922 58 83 0.9 0.9 0.00 0.00 0.00 80 1016.0
20210926140421 58 78 0.0 0.0 0.00 0.00 0.00 81 1016.1
20210926135920 57 74 0.0 0.9 0.00 0.00 0.00 82 1015.9
20210926135417 57 74 0.0 0.0 0.00 0.00 0.00 83 1016.0
20210926134917 57 77 0.0 0.0 0.00 0.00 0.00 83 1016.1
20210926134416 57 78 0.9 0.9 0.00 0.00 0.00 83 1016.2
20210926133914 57 79 0.0 0.0 0.00 0.00 0.00 83 1016.3
20210926133412 57 79 0.0 0.0 0.00 0.00 0.00 83 1016.1
20210926132911 57 69 0.0 0.0 0.00 0.00 0.00 83 1015.8
20210926132410 57 81 0.0 0.0 0.00 0.00 0.00 84 1015.9
20210926131908 57 81 0.0 0.0 0.00 0.00 0.00 84 1015.9
20210926131408 57 81 0.0 0.0 0.00 0.00 0.00 84 1016.0
20210926130906 57 81 0.0 0.0 0.00 0.00 0.00 85 1015.8
20210926130404 57 80 0.0 0.0 0.00 0.00 0.00 84 1015.7
20210926125903 57 80 0.0 0.0 0.00 0.00 0.00 84 1015.8
20210926125359 57 80 0.0 0.9 0.00 0.00 0.00 84 1015.8
20210926124857 57 82 0.0 0.0 0.00 0.00 0.00 84 1015.7
20210926124355 57 72 0.9 0.9 0.00 0.00 0.00 84 1015.8
20210926123853 57 71 0.0 0.0 0.00 0.00 0.00 84 1015.7
20210926123351 57 71 0.0 0.0 0.00 0.00 0.00 84 1015.9
20210926122850 57 66 0.0 0.0 0.00 0.00 0.00 85 1016.1
20210926122347 57 66 0.0 0.0 0.00 0.00 0.00 85 1015.9
20210926121847 57 66 0.0 0.0 0.00 0.00 0.00 85 1016.0
20210926121346 57 66 0.9 0.9 0.00 0.00 0.00 85 1015.8
20210926120844 57 74 0.0 0.0 0.00 0.00 0.00 85 1016.1
20210926120344 57 76 0.9 0.9 0.00 0.00 0.00 85 1016.0
20210926115843 57 75 0.0 0.0 0.00 0.00 0.00 86 1016.0
20210926115340 56 78 0.0 0.0 0.00 0.00 0.00 86 1016.3
20210926114836 56 76 0.0 0.0 0.00 0.00 0.00 87 1016.6
20210926114334 56 64 0.0 0.9 0.00 0.00 0.00 87 1016.5
20210926113834 55 75 0.0 0.9 0.00 0.00 0.00 88 1016.0
20210926113332 55 77 0.0 0.0 0.00 0.00 0.00 88 1015.5
20210926112829 56 77 0.0 0.0 0.00 0.00 0.00 87 1015.3
20210926112326 56 79 0.0 0.0 0.00 0.00 0.00 87 1015.5
20210926111822 56 77 0.0 0.9 0.00 0.00 0.00 86 1015.9
20210926111321 56 76 0.9 0.9 0.00 0.00 0.00 86 1016.1
20210926110820 56 81 0.0 0.0 0.00 0.00 0.00 87 1016.0
20210926110319 56 81 0.0 0.0 0.00 0.00 0.00 87 1016.1
20210926105818 56 81 0.0 0.0 0.00 0.00 0.00 87 1016.1
20210926105318 55 81 0.0 0.0 0.00 0.00 0.00 88 1016.3
20210926104816 55 81 0.0 0.0 0.00 0.00 0.00 87 1016.3
20210926104315 56 81 0.0 0.0 0.00 0.00 0.00 87 1016.1
20210926103812 56 81 0.0 0.0 0.00 0.00 0.00 86 1015.9
20210926103311 56 82 0.0 0.0 0.00 0.00 0.00 85 1016.0
20210926102809 56 75 0.0 0.9 0.00 0.00 0.00 86 1015.9
20210926102308 56 82 0.0 0.0 0.00 0.00 0.00 85 1015.8
20210926101807 56 82 0.0 0.0 0.00 0.00 0.00 85 1015.9
20210926101305 56 81 0.0 0.0 0.00 0.00 0.00 85 1015.7
20210926100805 56 78 0.9 0.9 0.00 0.00 0.00 85 1015.7
20210926100303 56 78 0.0 0.0 0.00 0.00 0.00 85 1015.6
20210926095801 56 78 0.0 0.0 0.00 0.00 0.00 85 1015.8
20210926095300 56 78 0.0 0.9 0.00 0.00 0.00 86 1015.9
20210926094759 56 78 0.0 0.0 0.00 0.00 0.00 86 1015.6
20210926094258 56 78 0.0 0.0 0.00 0.00 0.00 86 1015.4
20210926093754 56 72 0.0 0.0 0.00 0.00 0.00 86 1015.5
20210926093252 56 86 0.0 0.9 0.00 0.00 0.00 86 1015.6
20210926092750 56 78 0.0 0.9 0.00 0.00 0.00 86 1015.5
20210926092241 56 72 0.0 0.0 0.00 0.00 0.00 86 1015.3
20210926091737 56 80 0.0 0.0 0.00 0.00 0.00 86 1015.4
20210926091237 56 78 0.0 0.0 0.00 0.00 0.00 86 1015.3
20210926090736 56 78 0.0 0.0 0.00 0.00 0.00 86 1015.4
20210926090227 56 76 0.0 0.0 0.00 0.00 0.00 85 1015.1
20210926085726 56 76 0.0 0.0 0.00 0.00 0.00 84 1015.3
20210926085224 56 76 0.0 0.0 0.00 0.00 0.00 84 1015.1
20210926084724 57 75 0.0 0.0 0.00 0.00 0.00 83 1015.0
20210926084221 57 72 0.0 0.0 0.00 0.00 0.00 83 1015.1
20210926083719 57 83 0.0 0.0 0.00 0.00 0.00 82 1015.2
20210926083219 57 83 0.0 0.0 0.00 0.00 0.00 81 1015.1
20210926082717 57 88 0.0 0.0 0.00 0.00 0.00 81 1015.1
20210926082156 58 86 0.9 0.9 0.00 0.00 0.00 80 1014.9
20210926081654 58 79 0.0 0.0 0.00 0.00 0.00 79 1014.6
20210926081153 58 78 0.0 0.9 0.00 0.00 0.00 78 1014.8
20210926080651 58 79 0.0 0.0 0.00 0.00 0.00 78 1014.9
20210926080149 58 80 0.0 0.9 0.00 0.00 0.00 77 1014.5
20210926075646 58 83 0.0 0.9 0.00 0.00 0.00 79 1014.7
20210926075141 58 85 0.0 0.9 0.00 0.00 0.00 80 1014.6
20210926074642 58 83 0.0 0.0 0.00 0.00 0.00 79 1014.6
20210926074137 59 83 0.0 0.0 0.00 0.00 0.00 78 1014.3
20210926073636 59 83 0.0 0.0 0.00 0.00 0.00 76 1014.5